Voltar ao catálogo

COSMOS 2251 DEB

AtivoLEO
NORAD 34755·DEBRIS·🇷🇺 Russia

Lançado Jun 16, 1993 de Plesetsk Cosmodrome

Loading…

Próximas Passagens (próximas 24 horas)

TLE

EnvelhecendoSource: Space-Track

Época: Sep 11, 2026, 07:48 UTC

1 34755U 93036ZZ  26254.32524546  .00000395  00000-0  38529-3 0  9992
2 34755  73.9228 211.7195 0405330 181.5734 331.4552 13.51003672862048

Acompanhe COSMOS 2251 DEB em tempo real com AllMySat

Download on the App Store